Onweer radar Meer informatie blitzortung!


Regen radar Meer informatie rain snow radar


Bezoek onze andere website:

Template documentation
and downloads

And another site



15 daagse weersverwachting Vihti (FI)

  • Overzicht
  • Per uur
  • 15 dagen
  • Extra
  • Vergelijk
  • Kaarten
  • Dagkaart
  • Meer »
  • Info
  • Statistieken
  • Directe link
    Temp 6h Neerslag Wind  
 04:55     22:05    Daglengte: 17:10 Vandaag
21:00
20°
3.6 mm
3
 04:57     22:03    Daglengte: 17:06 Morgen
03:00
18°
 
3
09:00
20°
 
4
15:00
22°
2.0 mm
6
21:00
20°
 
4
 05:00     22:00    Daglengte: 17:00 Vrijdag 30 Jul
03:00
16°
 
4
09:00
17°
 
4
15:00
18°
15.7 mm
5
warningclass
21:00
16°
38.6 mm
2
 05:02     21:58    Daglengte: 16:56 Zaterdag 31 Jul
03:00
14°
6.2 mm
2
09:00
16°
 
3
15:00
21°
19.2 mm
3
Locatie info
Region: Uusimaa
Latitude: 60.4182°N
Longitude: 24.3406°E
39 masl
Postcode: 03400
Temp/Neerslag /Baro Onweer/Dauwpunt
    Temp Baro 1h Neerslag Dauwpunt Wind UV Bewolking  
 04:55     22:05    Daglengte: 17:10 Vandaag
19:00
21°
1004.6 hPa 3.6 mm
49%
19.6°
4
Windvlaag: 8.9 m/s
28%
20:00
20°
1004.3 hPa
54%
19.0°
4
Windvlaag: 8.8 m/s
19%
21:00
20°
1004.2 hPa
17%
18.2°
3
Windvlaag: 8.2 m/s
18%
22:00
19°
1004.2 hPa
14%
17.9°
3
Windvlaag: 8.1 m/s
60%
23:00
19°
1004.2 hPa
14%
18.0°
3
Windvlaag: 7.4 m/s
49%
 04:57     22:03    Daglengte: 17:06 Morgen
00:00
18°
1004.0 hPa
14%
17.8°
3
Windvlaag: 7.2 m/s
35%
01:00
18°
1003.7 hPa
14%
17.8°
3
Windvlaag: 7.5 m/s
47%
02:00
18°
1003.2 hPa
18%
17.8°
3
Windvlaag: 7.5 m/s
61%
03:00
18°
1002.6 hPa
16%
17.8°
3
Windvlaag: 7.5 m/s
67%
04:00
18°
1002.0 hPa
15%
17.6°
3
Windvlaag: 7.4 m/s
65%
05:00
18°
1001.6 hPa
15%
17.7°
3
Windvlaag: 8.1 m/s
37%
06:00
18°
1001.2 hPa
17%
17.7°
3
Windvlaag: 7.8 m/s
59%
07:00
19°
1000.8 hPa
25%
18.0°
4
Windvlaag: 7.9 m/s
26%
08:00
19°
1000.5 hPa
72%
18.1°
4
Windvlaag: 7.6 m/s
63%
09:00
20°
1000.2 hPa
19%
17.1°
4
Windvlaag: 7.8 m/s
73%
10:00
20°
1000.0 hPa
15%
17.9°
4
Windvlaag: 8.1 m/s
67%
11:00
20°
999.9 hPa
34%
18.5°
5
Windvlaag: 8.1 m/s
36%
12:00
21°
999.7 hPa 2.0 mm
71%
18.1°
5
Windvlaag: 9.1 m/s
67% warningclass
13:00
22°
999.7 hPa
67%
16.0°
5
Windvlaag: 8.7 m/s
45%
14:00
22°
999.4 hPa
66%
14.4°
6
Windvlaag: 8.6 m/s
29%
15:00
22°
999.1 hPa
60%
13.8°
6
Windvlaag: 8.5 m/s
34%
16:00
22°
999.0 hPa
20%
13.9°
6
Windvlaag: 8.4 m/s
39%
17:00
22°
998.9 hPa
16%
13.3°
6
Windvlaag: 8.6 m/s
9%
18:00
22°
998.9 hPa
14%
12.9°
6
Windvlaag: 8.1 m/s
3%
19:00
21°
998.7 hPa
14%
13.4°
5
Windvlaag: 7.9 m/s
5%
20:00
21°
998.4 hPa
14%
14.0°
5
Windvlaag: 7.4 m/s
5%
21:00
20°
998.4 hPa
14%
14.0°
4
Windvlaag: 7.1 m/s
8%
22:00
19°
998.3 hPa
14%
14.8°
4
Windvlaag: 7.3 m/s
47%
23:00
18°
998.0 hPa
14%
14.8°
4
Windvlaag: 7.7 m/s
36%
 05:00     22:00    Daglengte: 17:00 Vrijdag 30 Jul
00:00
18°
997.5 hPa
14%
14.6°
4
Windvlaag: 7.4 m/s
22%
01:00
17°
997.2 hPa
14%
14.2°
4
Windvlaag: 7.3 m/s
33%
02:00
17°
996.8 hPa
16%
14.5°
4
Windvlaag: 7.6 m/s
52%
03:00
16°
996.4 hPa
17%
14.9°
4
Windvlaag: 7.9 m/s
21%
04:00
16°
995.7 hPa
14%
15.1°
4
Windvlaag: 6.8 m/s
19%
05:00
16°
995.2 hPa
14%
15.1°
3
Windvlaag: 6.8 m/s
18%
06:00
16°
994.8 hPa
14%
15.2°
3
Windvlaag: 6.8 m/s
9%
07:00
16°
994.5 hPa
14%
15.2°
4
Windvlaag: 8 m/s
4%
08:00
17°
994.4 hPa
77%
15.6°
4
Windvlaag: 7.8 m/s
20%
09:00
17°
994.0 hPa
82%
15.8°
4
Windvlaag: 8.1 m/s
60%
10:00
17°
993.7 hPa
82%
15.5°
4
Windvlaag: 8.8 m/s
53%
11:00
18°
993.4 hPa
82%
15.5°
4
Windvlaag: 9.6 m/s
55%
12:00
17°
994.4 hPa 3.8 mm
100%
14.0°
5
Windvlaag: 9.8 m/s
73%
13:00
18°
994.2 hPa 3.8 mm
100%
13.6°
5
Windvlaag: 10.3 m/s
79%
14:00
17°
994.3 hPa 4.3 mm
100%
13.9°
5
Windvlaag: 10.3 m/s
60%
15:00
18°
994.0 hPa 3.9 mm
100%
14.0°
5
Windvlaag: 10.1 m/s
82% warningclass
16:00
18°
993.5 hPa 7.0 mm
100%
12.6°
5
Windvlaag: 10.1 m/s
65%
17:00
18°
993.2 hPa 6.6 mm
34%
10.8°
5
Windvlaag: 9.3 m/s
65%
18:00
18°
992.8 hPa 6.0 mm
22%
11.2°
4
Windvlaag: 8.6 m/s
62%
19:00
17°
992.6 hPa 6.6 mm
23%
13.4°
3
Windvlaag: 9.3 m/s
67%
20:00
16°
991.8 hPa 6.2 mm
21%
13.6°
2
Windvlaag: 7.3 m/s
82%
21:00
16°
991.3 hPa 6.1 mm
21%
14.4°
2
Windvlaag: 5.9 m/s
74%
22:00
15°
990.8 hPa 6.2 mm
21%
14.4°
2
Windvlaag: 4.8 m/s
78%
23:00
14°
990.8 hPa
21%
13.7°
1
Windvlaag: 2.4 m/s
69%
 05:02     21:58    Daglengte: 16:56 Zaterdag 31 Jul
00:00
14°
990.6 hPa
21%
14.2°
2
Windvlaag: 2.4 m/s
74%
01:00
14°
990.8 hPa
21%
14.0°
2
Windvlaag: 0.8 m/s
68%
02:00
14°
991.0 hPa
21%
14.1°
2
Windvlaag: -1 m/s
34%
03:00
14°
991.5 hPa
21%
14.0°
2
Windvlaag: -0.3 m/s
32%
04:00
14°
992.1 hPa
21%
13.9°
2
Windvlaag: 0.6 m/s
29%
05:00
14°
992.7 hPa
21%
13.3°
3
Windvlaag: 0.7 m/s
35%
06:00
13°
993.3 hPa
21%
13.5°
3
Windvlaag: 0.3 m/s
46%
07:00
14°
993.8 hPa
21%
13.0°
2
Windvlaag: 0.4 m/s
69%
08:00
15°
994.3 hPa
21%
13.1°
3
Windvlaag: 0.5 m/s
68%
09:00
16°
994.8 hPa
22%
13.2°
3
Windvlaag: 0.4 m/s
77%
10:00
18°
995.3 hPa
22%
12.6°
3
Windvlaag: 1.8 m/s
39%
11:00
19°
995.6 hPa
40%
11.5°
3
Windvlaag: 2 m/s
35%
12:00
21°
995.8 hPa
89%
11.8°
3
Windvlaag: 1.6 m/s
44%
13:00
21°
996.1 hPa 6.1 mm
100%
13.1°
3
Windvlaag: 1.5 m/s
79%
14:00
21°
996.2 hPa 6.6 mm
100%
14.8°
3
Windvlaag: 1.9 m/s
73%
15:00
21°
996.2 hPa 6.5 mm
100%
14.9°
3
Windvlaag: 2.3 m/s
99%
16:00
23°
995.7 hPa 18.7 mm
100%
14.5°
5
Windvlaag: 6.3 m/s
91%
17:00
23°
995.9 hPa 18.7 mm
100%
13.8°
6
Windvlaag: 6.6 m/s
73%
18:00
23°
996.0 hPa 18.7 mm
100%
14.4°
5
Windvlaag: 6.3 m/s
86% warningclass
Temp/Neerslag /Baro Onweer/Dauwpunt
    Temp Baro Neerslag Dauwpunt Wind Bewolking  
 04:55     22:05    Daglengte: 17:10 Vandaag
21:00
20°
1004.2 hPa 3.6 mm 18.2°
3
18%
 04:57     22:03    Daglengte: 17:06 Morgen
00:00
18°
1004.0 hPa   17.8°
3
35%
03:00
18°
1002.6 hPa   17.8°
3
67%
06:00
18°
1001.2 hPa   17.7°
3
59%
09:00
20°
1000.2 hPa   17.1°
4
73%
12:00
21°
999.7 hPa 2.0 mm 18.1°
5
67% warningclass
15:00
22°
999.1 hPa   13.8°
6
34%
18:00
22°
998.9 hPa   12.9°
6
3%
21:00
20°
998.4 hPa   14.0°
4
8%
 05:00     22:00    Daglengte: 17:00 Vrijdag 30 Jul
00:00
18°
997.5 hPa   14.6°
4
22%
03:00
16°
996.4 hPa   14.9°
4
21%
06:00
16°
994.8 hPa   15.2°
3
9%
09:00
17°
994.0 hPa   15.8°
4
60%
12:00
17°
994.4 hPa 3.8 mm 14.0°
5
73%
15:00
18°
994.0 hPa 11.9 mm 14.0°
5
82% warningclass
18:00
18°
992.8 hPa 19.7 mm 11.2°
4
62%
21:00
16°
991.3 hPa 18.9 mm 14.4°
2
74%
 05:02     21:58    Daglengte: 16:56 Zaterdag 31 Jul
00:00
14°
990.6 hPa 6.2 mm 14.2°
2
74%
03:00
14°
991.5 hPa   14.0°
2
32%
06:00
13°
993.3 hPa   13.5°
3
46%
09:00
16°
994.8 hPa   13.2°
3
77%
12:00
21°
995.8 hPa   11.8°
3
44%
15:00
21°
996.2 hPa 19.2 mm 14.9°
3
99%
18:00
23°
996.0 hPa 56.1 mm 14.4°
5
86% warningclass
21:00
19°
996.5 hPa 57.4 mm 16.2°
3
65% warningclass
 05:04     21:55    Daglengte: 16:51 Zondag 01 Aug
00:00
15°
997.7 hPa 15.6 mm 14.4°
3
1%
03:00
14°
996.6 hPa 21.8 mm 13.6°
2
1%
06:00
14°
995.0 hPa 23.2 mm 13.5°
2
1%
09:00
17°
993.6 hPa 25.4 mm 15.1°
2
1%
12:00
19°
994.7 hPa 26.7 mm 15.0°
4
1%
15:00
22°
995.9 hPa 28.1 mm 13.9°
4
1%
18:00
20°
997.5 hPa 28.9 mm 13.5°
5
0%
21:00
18°
999.4 hPa 29.1 mm 14.3°
4
0%
 05:07     21:53    Daglengte: 16:46 Maandag 02 Aug
00:00
15°
1000.5 hPa 29.1 mm 14.2°
3
0%
03:00
14°
1001.4 hPa 29.2 mm 13.5°
2
0%
06:00
13°
1001.3 hPa 29.2 mm 13.0°
2
1%
09:00
18°
1001.7 hPa 29.2 mm 13.7°
2
1%
12:00
21°
1001.5 hPa 29.6 mm 11.6°
3
1%
15:00
22°
1000.9 hPa 29.6 mm 10.9°
3
1%
18:00
22°
1001.2 hPa 29.6 mm 8.8°
3
1%
21:00
17°
1001.3 hPa 29.6 mm 11.4°
2
1%
 05:09     21:50    Daglengte: 16:41 Dinsdag 03 Aug
00:00
12°
1002.0 hPa 29.6 mm 11.0°
2
0%
03:00
11°
1001.7 hPa 29.6 mm 10.8°
2
0%
06:00
11°
1002.1 hPa 29.6 mm 10.5°
2
0%
09:00
17°
1001.8 hPa 29.6 mm 11.5°
2
0%
12:00
21°
1002.1 hPa 29.7 mm 10.7°
3
0%
15:00
20°
1002.7 hPa 29.8 mm 9.7°
4
1%
18:00
20°
1003.8 hPa 29.8 mm 8.7°
4
1%
21:00
17°
1005.0 hPa 29.8 mm 8.0°
3
1%
 05:12     21:47    Daglengte: 16:35 Woensdag 04 Aug
00:00
11°
1007.0 hPa 29.8 mm 7.3°
3
0%
03:00
Voelt als: 7.9°
1007.9 hPa 29.8 mm 7.1°
2
0%
06:00
Voelt als: 8.0°
1008.6 hPa 29.8 mm 6.6°
2
0%
09:00
15°
1009.7 hPa 29.8 mm 7.2°
3
1%
12:00
20°
1009.9 hPa 29.8 mm 6.6°
2
1%
15:00
22°
1010.2 hPa 29.8 mm 4.4°
2
1%
18:00
18°
1011.4 hPa   10.5°
4
1%
21:00
14°
1012.4 hPa 59.6 mm 11.9°
2
1%
 05:14     21:45    Daglengte: 16:31 Donderdag 05 Aug
03:00
13°
1014.0 hPa 60.1 mm 11.5°
1
1%
09:00
15°
1015.6 hPa 60.2 mm 11.1°
1
1%
15:00
22°
1015.8 hPa 60.2 mm 7.9°
2
1%
21:00
17°
1016.8 hPa 60.3 mm 10.4°
2
1%
 05:17     21:42    Daglengte: 16:25 Vrijdag 06 Aug
03:00
11°
1018.4 hPa 60.3 mm 7.1°
1
0%
09:00
18°
1018.6 hPa 60.3 mm 7.8°
1
0%
15:00
23°
1017.8 hPa 60.3 mm 8.9°
3
1%
21:00
17°
1017.4 hPa 60.3 mm 11.4°
2
1%
 05:19     21:39    Daglengte: 16:20 Zaterdag 07 Aug
03:00
15°
1016.8 hPa 60.3 mm 11.5°
3
1%
09:00
17°
1010.1 hPa 0.8 mm 11.9°
2
54%
15:00
21°
1009.6 hPa 1.1 mm 11.8°
2
63%
21:00
17°
1009.1 hPa 0.9 mm 12.9°
1
68%
 05:21     21:37    Daglengte: 16:16 Zondag 08 Aug
03:00
15°
1009.0 hPa 0.7 mm 12.7°
2
68%
09:00
17°
1008.5 hPa 1.5 mm 13.6°
2
75%
15:00
20°
1009.0 hPa 2.3 mm 13.8°
1
69%
21:00
17°
1009.5 hPa 1.3 mm 13.1°
1
72%
 05:24     21:34    Daglengte: 16:10 Maandag 09 Aug
03:00
14°
1010.4 hPa 0.4 mm 12.4°
0
63%
09:00
17°
1010.5 hPa 0.3 mm 13.3°
1
63%
15:00
21°
1011.4 hPa 0.1 mm 12.5°
2
58%
21:00
18°
1011.7 hPa 0.5 mm 13.3°
1
62%
 05:26     21:31    Daglengte: 16:05 Dinsdag 10 Aug
03:00
15°
1012.3 hPa 0.2 mm 12.8°
0
64%
09:00
17°
1011.9 hPa 0.5 mm 13.6°
1
76%
15:00
21°
1011.8 hPa 1.2 mm 13.6°
1
75%
21:00
17°
1011.0 hPa 1.6 mm 13.9°
1
80%
 05:29     21:28    Daglengte: 15:59 Woensdag 11 Aug
03:00
15°
1010.8 hPa 1.1 mm 13.4°
0
72%
09:00
17°
1010.1 hPa 1.2 mm 14.0°
1
71%
15:00
20°
1010.3 hPa 0.8 mm 13.0°
1
73%
21:00
17°
1010.5 hPa 0.5 mm 13.2°
1
66%
 05:31     21:25    Daglengte: 15:54 Donderdag 12 Aug
03:00
14°
1010.7 hPa 0.3 mm 12.6°
0
56%
09:00
17°
1010.1 hPa 0.4 mm 13.3°
1
59%
15:00
21°
1009.6 hPa 1.2 mm 13.0°
1
63%
  CAPE Lifted Index Hail Supercell Tornado SRH 3km CL BTM PRES CL TOP PRES Swiss DWD icon SMHI TS
 04:55     22:05    Daglengte: 17:10 Vandaag
19:00 250 J/kg -1.3 K 0 % 0 % 0 % 0 m²/s² 0 0 1.19 1
20:00 276 J/kg -1.3 K 0 % 0 % 0 % 0 m²/s² 0 0 1.16 2
21:00 418 J/kg -1.7 K 0 % 0 % 0 % 0 m²/s² 0 0 0.76 2
22:00 414 J/kg -1.8 K 0 % 0 % 0 % 0 m²/s² 0 0 0.66 3
23:00 411 J/kg -1.7 K 0 % 0 % 0 % 0 m²/s² 0 0 1.15 3
 04:57     22:03    Daglengte: 17:06 Morgen
00:00 399 J/kg -1.6 K 0 % 0 % 0 % 0 m²/s² 0 0 1.4 3
01:00 329 J/kg -1.4 K 0 % 0 % 0 % 0 m²/s² 0 0 1.51 3
02:00 479 J/kg -1.8 K 0 % 0 % 0 % 0 m²/s² 0 0 0.87 2
03:00 449 J/kg -1.5 K 0 % 0 % 0 % 0 m²/s² 0 0 0.72 3
04:00 429 J/kg -1.5 K 0 % 0 % 0 % 0 m²/s² 0 0 1.32 2
05:00 586 J/kg -1.9 K 0 % 0 % 0 % 0 m²/s² 0 0 0.62 2
06:00 714 J/kg -2.6 K 0 % 0 % 0 % 0 m²/s² 0 0 -0.65 2
07:00 1080 J/kg -3.8 K 0 % 0 % 0 % 0 m²/s² 0 0 -2.84 3
08:00 1340 J/kg -4.7 K 0 % 0 % 0 % 0 m²/s² 0 0 -3.89 3
09:00 1424 J/kg -5.0 K 0 % 0 % 0 % 0 m²/s² 0 0 -4.1 3
10:00 1500 J/kg -5.3 K 0 % 0 % 0 % 0 m²/s² 0 0 -4.49 3
11:00 1450 J/kg -5.2 K 0 % 0 % 0 % 0 m²/s² 0 0 -3.94 2
12:00 1165 J/kg -4.3 K 0 % 0 % 0 % 0 m²/s² 0 0 -2.53 3
13:00 1144 J/kg -4.2 K 0 % 0 % 0 % 0 m²/s² 0 0 -2.67 2
14:00 824 J/kg -3.3 K 0 % 0 % 0 % 0 m²/s² 0 0 0.48 2
15:00 607 J/kg -2.7 K 0 % 0 % 0 % 0 m²/s² 0 0 0.72 3
16:00 472 J/kg -2.3 K 0 % 0 % 0 % 0 m²/s² 0 0 0.43 2
17:00 156 J/kg -0.9 K 0 % 0 % 0 % 0 m²/s² 0 0 1.92 2
18:00 119 J/kg -0.5 K 0 % 0 % 0 % 0 m²/s² 0 0 1.27 2
19:00 141 J/kg -0.2 K 0 % 0 % 0 % 0 m²/s² 0 0 0.94 2
20:00 108 J/kg 0.4 K 0 % 0 % 0 % 0 m²/s² 0 0 2.23 2
21:00 326 J/kg -0.8 K 0 % 0 % 0 % 0 m²/s² 0 0 1.78 2
22:00 438 J/kg -1.1 K 0 % 0 % 0 % 0 m²/s² 0 0 2.29 2
23:00 452 J/kg -1.0 K 0 % 0 % 0 % 0 m²/s² 0 0 2.84 2
 05:00     22:00    Daglengte: 17:00 Vrijdag 30 Jul
00:00 520 J/kg -1.1 K 0 % 0 % 0 % 0 m²/s² 0 0 2.26 1
01:00 441 J/kg -0.4 K 0 % 0 % 0 % 0 m²/s² 0 0 3.2 2
02:00 258 J/kg 1.4 K 0 % 0 % 0 % 0 m²/s² 0 0 1.58 2
03:00 355 J/kg -0.1 K 0 % 0 % 0 % 0 m²/s² 0 0 3.98 2
04:00 428 J/kg -0.2 K 0 % 0 % 0 % 0 m²/s² 0 0 2.59 2
05:00 520 J/kg -1.3 K 0 % 0 % 0 % 0 m²/s² 0 0 1.67 2
06:00 494 J/kg -2.2 K 0 % 0 % 0 % 0 m²/s² 0 0 -1.51 2
07:00 575 J/kg -2.6 K 0 % 0 % 0 % 0 m²/s² 0 0 -0.59 2
08:00 559 J/kg -2.5 K 0 % 0 % 0 % 0 m²/s² 0 0 -1.9 3
09:00 889 J/kg -4.5 K 0 % 0 % 0 % 0 m²/s² 0 0 -3.39 3
10:00 802 J/kg -3.8 K 0 % 0 % 0 % 0 m²/s² 0 0 -2.84 3
11:00 665 J/kg -2.7 K 0 % 0 % 0 % 0 m²/s² 0 0 -2.25 3
12:00 453 J/kg -1.5 K 0 % 0 % 0 % 0 m²/s² 0 0 -0.63 3
13:00 473 J/kg -2.1 K 0 % 0 % 0 % 0 m²/s² 0 0 -0.9 2
14:00 4 J/kg -1.1 K 0 % 0 % 0 % 0 m²/s² 0 0 0.55 2
15:00 1084 J/kg -4.4 K 0 % 0 % 0 % 0 m²/s² 0 0 -2.45 80
16:00 785 J/kg -3.2 K 0 % 0 % 0 % 0 m²/s² 0 0 -0.56 2
17:00 382 J/kg -1.7 K 0 % 0 % 0 % 0 m²/s² 0 0 1.18 2
18:00 277 J/kg -1.3 K 0 % 0 % 0 % 0 m²/s² 0 0 1.49 3
19:00 42 J/kg 0.1 K 0 % 0 % 0 % 0 m²/s² 0 0 1.69 3
20:00 267 J/kg -1.8 K 0 % 0 % 0 % 0 m²/s² 0 0 -0.42 3
21:00 470 J/kg -2.2 K 0 % 0 % 0 % 0 m²/s² 0 0 -0.25 1
22:00 470 J/kg -2.7 K 0 % 0 % 0 % 0 m²/s² 0 0 -1.26 3
23:00 372 J/kg -2.1 K 0 % 0 % 0 % 0 m²/s² 0 0 -0.39 1
 05:02     21:58    Daglengte: 16:56 Zaterdag 31 Jul
00:00 144 J/kg -0.9 K 0 % 0 % 0 % 0 m²/s² 0 0 0.66 0
01:00 73 J/kg 0.1 K 0 % 0 % 0 % 0 m²/s² 0 0 1.36 1
02:00 5 J/kg 1.7 K 0 % 0 % 0 % 0 m²/s² 0 0 4.13 2
03:00 1 J/kg 2.8 K 0 % 0 % 0 % 0 m²/s² 0 0 5.26 2
04:00 1 J/kg 3.1 K 0 % 0 % 0 % 0 m²/s² 0 0 5.95 2
05:00 0 J/kg 3.3 K 0 % 0 % 0 % 0 m²/s² 0 0 6.39 2
06:00 0 J/kg 3.5 K 0 % 0 % 0 % 0 m²/s² 0 0 6.53 2
07:00 0 J/kg 4.6 K 0 % 0 % 0 % 0 m²/s² 0 0 8.65 2
08:00 0 J/kg 3.9 K 0 % 0 % 0 % 0 m²/s² 0 0 8.85 2
09:00 0 J/kg 2.5 K 0 % 0 % 0 % 0 m²/s² 0 0 5.8 2
10:00 4 J/kg 2.2 K 0 % 0 % 0 % 0 m²/s² 0 0 3.55 1
11:00 0 J/kg 2.2 K 0 % 0 % 0 % 0 m²/s² 0 0 4.48 3
12:00 7 J/kg 1.1 K 0 % 0 % 0 % 0 m²/s² 0 0 5.27 3
13:00 299 J/kg -1.0 K 0 % 0 % 0 % 0 m²/s² 0 0 3.38 80
14:00 927 J/kg -3.1 K 0 % 0 % 0 % 0 m²/s² 0 0 0.86 80
15:00 1103 J/kg -3.8 K 0 % 0 % 0 % 0 m²/s² 0 0 -1.46 80
16:00 599 J/kg -2.3 K 0 % 0 % 0 % 0 m²/s² 0 0 -0.77
17:00 482 J/kg -2.1 K 0 % 0 % 0 % 0 m²/s² 0 0 0.18
18:00 689 J/kg -3.1 K 0 % 0 % 0 % 0 m²/s² 0 0 -2.05
Temp Baro Wind Neerslag
  EWN Forecast EWN WRFDA DWD ICON FMI HIRLAM MET Norway GFS
 04:55     22:05    Daglengte: 17:10 Vandaag
21:00 19.7° 1004.2 hPa 3.2 m/s 3.6 mm 20.3° 1004.1 hPa 3.4 m/s 16.8 mm 19.9° 1004.2 hPa 3.3 m/s 5.7 mm 19.3° 1004.7 hPa 2.0 m/s 0.0 mm 20.2° 1003.8 hPa 3.7 m/s
 04:57     22:03    Daglengte: 17:06 Morgen
00:00 18.3° 1004.0 hPa 3.3 m/s 0.0 mm 17.6° 1003.3 hPa 3.8 m/s 17.0 mm 18.4° 1003.6 hPa 3.3 m/s 0.0 mm 18.1° 1004.4 hPa 2.4 m/s 0.0 mm 17.2° 1003.2 hPa 2.8 m/s
03:00 18.2° 1002.6 hPa 3.1 m/s 0.0 mm 17.9° 1002.3 hPa 4.0 m/s 17.1 mm 18.4° 1002.1 hPa 3.3 m/s 0.0 mm 17.5° 1003.0 hPa 2.1 m/s 0.0 mm 17.7° 1001.7 hPa 4.3 m/s
06:00 18.1° 1001.2 hPa 3.4 m/s 0.0 mm 18.3° 1001.0 hPa 4.1 m/s 17.5 mm 18.1° 1000.7 hPa 3.4 m/s 0.0 mm 17.8° 1002.0 hPa 2.5 m/s 0.0 mm 17.6° 1001.3 hPa 3.6 m/s
09:00 19.6° 1000.2 hPa 3.9 m/s 0.0 mm 20.0° 1000.4 hPa 3.6 m/s 19.2 mm 19.5° 999.7 hPa 4.6 m/s 0.0 mm 20.7° 1000.8 hPa 3.1 m/s 0.0 mm 20.2° 1000.1 hPa 4.3 m/s
12:00 20.8° 999.7 hPa 5.3 m/s 2.0 mm 22.1° 999.6 hPa 6.2 m/s 25.5 mm 21.5° 998.8 hPa 6.1 m/s 0.2 mm 20.4° 1000.1 hPa 3.6 m/s 0.0 mm 24.7° 999.1 hPa 5.4 m/s
15:00 22.5° 999.1 hPa 6.0 m/s 0.0 mm 23.8° 999.2 hPa 7.4 m/s 29.2 mm 22.0° 998.1 hPa 6.7 m/s 0.1 mm 23.7° 999.4 hPa 4.5 m/s 0.0 mm 24.7° 998.9 hPa 6.3 m/s
18:00 21.8° 998.9 hPa 5.8 m/s 0.0 mm 22.7° 998.8 hPa 6.7 m/s 29.4 mm 21.6° 997.7 hPa 6.8 m/s 0.0 mm 22.8° 999.1 hPa 4.9 m/s 0.0 mm 23.3° 999.1 hPa 6.1 m/s
21:00 19.8° 998.4 hPa 4.5 m/s 0.0 mm 19.8° 997.9 hPa 3.6 m/s 29.4 mm 19.2° 997.0 hPa 5.7 m/s 0.0 mm 20.1° 998.7 hPa 3.6 m/s 0.0 mm 19.3° 998.6 hPa 4.6 m/s
 05:00     22:00    Daglengte: 17:00 Vrijdag 30 Jul
00:00 17.7° 997.5 hPa 3.6 m/s 0.0 mm 16.6° 997.2 hPa 2.9 m/s 29.4 mm 17.8° 996.5 hPa 4.6 m/s 0.0 mm 17.3° 997.6 hPa 2.7 m/s 0.0 mm 17.3° 998.3 hPa 4.3 m/s
03:00 16.4° 996.4 hPa 3.8 m/s 0.0 mm 15.5° 997.0 hPa 3.5 m/s 30.1 mm 16.4° 995.5 hPa 4.4 m/s 0.0 mm 15.7° 996.2 hPa 2.7 m/s 0.0 mm 15.4° 997.5 hPa 3.8 m/s
06:00 15.8° 994.8 hPa 3.4 m/s 0.0 mm 15.9° 995.6 hPa 3.7 m/s 30.7 mm 15.7° 994.5 hPa 4.4 m/s 0.0 mm 15.3° 993.8 hPa 2.8 m/s 0.0 mm 14.7° 996.5 hPa 3.6 m/s
09:00 17.2° 994.0 hPa 4.4 m/s 0.0 mm 17.9° 994.3 hPa 6.3 m/s 37.3 mm 17.0° 993.8 hPa 5.1 m/s 0.1 mm 16.6° 993.1 hPa 4.2 m/s 0.0 mm 16.1° 995.6 hPa 4.9 m/s
12:00 16.9° 994.4 hPa 4.9 m/s 3.8 mm 16.7° 994.7 hPa 5.2 m/s 46.2 mm 17.6° 992.7 hPa 5.4 m/s 0.3 mm 17.3° 994.9 hPa 5.6 m/s
15:00 18.0° 994.0 hPa 4.8 m/s 11.9 mm 18.7° 994.8 hPa 6.7 m/s 51.8 mm 18.1° 991.8 hPa 4.7 m/s 0.8 mm 15.4° 994.5 hPa 5.4 m/s
18:00 18.0° 992.8 hPa 4.3 m/s 19.7 mm 18.5° 993.3 hPa 6.4 m/s 52.7 mm 18.3° 990.6 hPa 4.2 m/s 0.1 mm 16.8° 992.4 hPa 5.9 m/s
21:00 15.8° 991.3 hPa 1.8 m/s 18.9 mm 15.5° 991.2 hPa 1.9 m/s 53.5 mm 16.5° 990.3 hPa 0.8 m/s 0.0 mm 14.0° 990.7 hPa 2.1 m/s
 05:02     21:58    Daglengte: 16:56 Zaterdag 31 Jul
00:00 14.3° 990.6 hPa 2.2 m/s 6.2 mm 12.2° 989.3 hPa 2.3 m/s 54.3 mm 14.5° 991.2 hPa 2.3 m/s 0.0 mm 13.0° 991.1 hPa 2.4 m/s
03:00 14.0° 991.5 hPa 2.5 m/s 0.0 mm 11.5° 990.9 hPa 2.2 m/s 54.4 mm 14.6° 992.7 hPa 4.2 m/s 0.0 mm 12.1° 993.2 hPa 3.7 m/s
06:00 13.5° 993.3 hPa 2.5 m/s 0.0 mm 10.3° 992.6 hPa 2.5 m/s 54.4 mm 14.3° 994.6 hPa 3.3 m/s 0.0 mm 11.5° 995.0 hPa 2.9 m/s
09:00 16.4° 994.8 hPa 2.6 m/s 0.0 mm 16.5° 993.9 hPa 2.7 m/s 54.4 mm 18.2° 995.9 hPa 3.4 m/s 0.0 mm 16.0° 996.2 hPa 3.3 m/s
12:00 20.5° 995.8 hPa 2.9 m/s 0.0 mm 21.0° 995.1 hPa 2.9 m/s 54.4 mm 21.0° 996.5 hPa 3.7 m/s 0.0 mm 20.1° 997.4 hPa 3.4 m/s
15:00 21.5° 996.2 hPa 3.1 m/s 19.2 mm 22.5° 995.7 hPa 3.2 m/s 54.5 mm 19.9° 996.9 hPa 3.8 m/s 1.6 mm 23.4° 997.7 hPa 3.0 m/s
18:00 23.0° 996.0 hPa 5.1 m/s 56.1 mm 23.0° 996.0 hPa 5.1 m/s 56.1 mm 22.5° 998.0 hPa 3.8 m/s
21:00 18.8° 996.5 hPa 3.4 m/s 57.4 mm 18.8° 996.5 hPa 3.4 m/s 57.4 mm 17.5° 998.1 hPa 2.2 m/s
 05:04     21:55    Daglengte: 16:51 Zondag 01 Aug
00:00 15.2° 997.7 hPa 2.6 m/s 15.6 mm 15.2° 997.7 hPa 2.6 m/s 15.6 mm
03:00 14.0° 996.6 hPa 2.4 m/s 21.8 mm 14.0° 996.6 hPa 2.4 m/s 21.8 mm
06:00 13.7° 995.0 hPa 1.9 m/s 23.2 mm 13.7° 995.0 hPa 1.9 m/s 23.2 mm
09:00 17.1° 993.6 hPa 1.9 m/s 25.4 mm 17.1° 993.6 hPa 1.9 m/s 25.4 mm
12:00 19.5° 994.7 hPa 3.8 m/s 26.7 mm 19.5° 994.7 hPa 3.8 m/s 26.7 mm
15:00 21.6° 995.9 hPa 3.8 m/s 28.1 mm 21.6° 995.9 hPa 3.8 m/s 28.1 mm
18:00 20.2° 997.5 hPa 4.7 m/s 28.9 mm 20.2° 997.5 hPa 4.7 m/s 28.9 mm
21:00 17.8° 999.4 hPa 4.3 m/s 29.1 mm 17.8° 999.4 hPa 4.3 m/s 29.1 mm
 05:07     21:53    Daglengte: 16:46 Maandag 02 Aug
00:00 14.5° 1000.5 hPa 2.7 m/s 29.1 mm 14.5° 1000.5 hPa 2.7 m/s 29.1 mm
03:00 13.7° 1001.4 hPa 2.1 m/s 29.2 mm 13.7° 1001.4 hPa 2.1 m/s 29.2 mm
06:00 13.1° 1001.3 hPa 1.5 m/s 29.2 mm 13.1° 1001.3 hPa 1.5 m/s 29.2 mm
09:00 17.9° 1001.7 hPa 2.3 m/s 29.2 mm 17.9° 1001.7 hPa 2.3 m/s 29.2 mm
12:00 20.9° 1001.5 hPa 3.0 m/s 29.6 mm 20.9° 1001.5 hPa 3.0 m/s 29.5 mm
15:00 22.1° 1000.9 hPa 3.1 m/s 29.6 mm 22.1° 1000.9 hPa 3.1 m/s 29.6 mm
18:00 21.6° 1001.2 hPa 3.1 m/s 29.6 mm 21.6° 1001.2 hPa 3.1 m/s 29.6 mm
21:00 17.3° 1001.3 hPa 2.4 m/s 29.6 mm 17.3° 1001.3 hPa 2.4 m/s 29.6 mm
 05:09     21:50    Daglengte: 16:41 Dinsdag 03 Aug
00:00 12.4° 1002.0 hPa 1.8 m/s 29.6 mm 12.4° 1002.0 hPa 1.8 m/s 29.6 mm
03:00 11.3° 1001.7 hPa 1.7 m/s 29.6 mm 11.3° 1001.7 hPa 1.7 m/s 29.6 mm
06:00 11.3° 1002.1 hPa 1.7 m/s 29.6 mm 11.3° 1002.1 hPa 1.7 m/s 29.6 mm
09:00 17.0° 1001.8 hPa 2.5 m/s 29.6 mm 17.0° 1001.8 hPa 2.5 m/s 29.6 mm
12:00 20.8° 1002.1 hPa 2.7 m/s 29.7 mm 20.8° 1002.1 hPa 2.7 m/s 29.7 mm
15:00 20.1° 1002.7 hPa 3.6 m/s 29.8 mm 20.1° 1002.7 hPa 3.6 m/s 29.8 mm
18:00 20.0° 1003.8 hPa 3.9 m/s 29.8 mm 20.0° 1003.8 hPa 3.9 m/s 29.8 mm
21:00 16.5° 1005.0 hPa 3.5 m/s 29.8 mm 16.5° 1005.0 hPa 3.5 m/s 29.8 mm
 05:12     21:47    Daglengte: 16:35 Woensdag 04 Aug
00:00 11.2° 1007.0 hPa 2.8 m/s 29.8 mm 11.2° 1007.0 hPa 2.8 m/s 29.8 mm
03:00 9.1° 1007.9 hPa 2.3 m/s 29.8 mm 9.1° 1007.9 hPa 2.3 m/s 29.8 mm
06:00 9.0° 1008.6 hPa 2.1 m/s 29.8 mm 9.0° 1008.6 hPa 2.1 m/s 29.8 mm
09:00 15.1° 1009.7 hPa 2.6 m/s 29.8 mm 15.1° 1009.7 hPa 2.6 m/s 29.8 mm
12:00 19.6° 1009.9 hPa 2.2 m/s 29.8 mm 19.6° 1009.9 hPa 2.2 m/s 29.8 mm
15:00 21.9° 1010.2 hPa 2.4 m/s 29.8 mm 21.9° 1010.2 hPa 2.4 m/s 29.8 mm
18:00 17.8° 1011.4 hPa 3.8 m/s 29.8 mm 17.8° 1011.4 hPa 3.8 m/s 29.8 mm
21:00 14.0° 1012.4 hPa 2.2 m/s 29.9 mm 14.0° 1012.4 hPa 2.2 m/s 29.9 mm
 05:14     21:45    Daglengte: 16:31 Donderdag 05 Aug
03:00 13.2° 1014.0 hPa 1.4 m/s 30.1 mm 13.2° 1014.0 hPa 1.4 m/s 30.1 mm
09:00 15.1° 1015.6 hPa 0.8 m/s 30.1 mm 15.1° 1015.6 hPa 0.8 m/s 30.1 mm
15:00 21.8° 1015.8 hPa 1.6 m/s 30.1 mm 21.8° 1015.8 hPa 1.6 m/s 30.1 mm
21:00 16.5° 1016.8 hPa 1.5 m/s 30.2 mm 16.5° 1016.8 hPa 1.5 m/s 30.2 mm
 05:17     21:42    Daglengte: 16:25 Vrijdag 06 Aug
03:00 11.2° 1018.4 hPa 0.5 m/s 30.2 mm 11.2° 1018.4 hPa 0.5 m/s 30.2 mm
09:00 18.0° 1018.6 hPa 1.3 m/s 30.2 mm 18.0° 1018.6 hPa 1.3 m/s 30.2 mm
15:00 23.4° 1017.8 hPa 3.4 m/s 30.2 mm 23.4° 1017.8 hPa 3.4 m/s 30.2 mm
21:00 17.1° 1017.4 hPa 2.2 m/s 30.2 mm 17.1° 1017.4 hPa 2.2 m/s 30.2 mm
 05:19     21:39    Daglengte: 16:20 Zaterdag 07 Aug
03:00 14.7° 1016.8 hPa 2.8 m/s 30.2 mm 14.7° 1016.8 hPa 2.8 m/s 30.2 mm
09:00 17.4° 1010.1 hPa 1.6 m/s 0.8 mm
15:00 20.8° 1009.6 hPa 2.2 m/s 1.1 mm
21:00 17.3° 1009.1 hPa 1.5 m/s 0.9 mm
 05:21     21:37    Daglengte: 16:16 Zondag 08 Aug
03:00 14.7° 1009.0 hPa 1.9 m/s 0.7 mm
09:00 17.0° 1008.5 hPa 2.0 m/s 1.5 mm
15:00 20.2° 1009.0 hPa 1.3 m/s 2.3 mm
21:00 17.2° 1009.5 hPa 0.6 m/s 1.3 mm
 05:24     21:34    Daglengte: 16:10 Maandag 09 Aug
03:00 14.2° 1010.4 hPa 0.3 m/s 0.4 mm
09:00 17.3° 1010.5 hPa 0.9 m/s 0.3 mm
15:00 21.3° 1011.4 hPa 1.5 m/s 0.1 mm
21:00 17.5° 1011.7 hPa 0.6 m/s 0.5 mm
 05:26     21:31    Daglengte: 16:05 Dinsdag 10 Aug
03:00 14.6° 1012.3 hPa 0.3 m/s 0.2 mm
09:00 17.4° 1011.9 hPa 1.3 m/s 0.5 mm
15:00 20.8° 1011.8 hPa 1.4 m/s 1.2 mm
21:00 17.4° 1011.0 hPa 0.8 m/s 1.6 mm
 05:29     21:28    Daglengte: 15:59 Woensdag 11 Aug
03:00 14.9° 1010.8 hPa 0.5 m/s 1.1 mm
09:00 17.0° 1010.1 hPa 0.8 m/s 1.2 mm
15:00 20.2° 1010.3 hPa 1.4 m/s 0.8 mm
21:00 16.9° 1010.5 hPa 1.0 m/s 0.5 mm
 05:31     21:25    Daglengte: 15:54 Donderdag 12 Aug
03:00 14.1° 1010.7 hPa 0.2 m/s 0.3 mm
09:00 16.9° 1010.1 hPa 0.6 m/s 0.4 mm
15:00 20.7° 1009.6 hPa 1.3 m/s 1.2 mm